Bluefield, WV

10:17 PM EST on December 14, 2017 (GMT -0500)
Mercer County

Weather History for KBLF - April, 2014

Change the Weather History Date:

Thursday, April 24, 2014

  Actual Average Record
Temperature  
Mean Temperature 59 °F 58 °F  
Max Temperature 76 °F 68 °F 82 °F (2009)
Min Temperature 41 °F 48 °F 28 °F (2005)
Degree Days  
Heating Degree Days 6 8  
Month to date heating degree days 207 276  
Since 1 July heating degree days 4544 4385  
Cooling Degree Days 0 1  
Month to date cooling degree days 15 22  
Year to date cooling degree days 15 26  
Growing Degree Days 8 (Base 50)    
Moisture  
Dew Point 28 °F    
Average Humidity 36    
Maximum Humidity 57    
Minimum Humidity 15    
Precipitation  
Precipitation 0.00 in 0.12 in 1.76 in (1987)
Month to date precipitation 1.60 2.63  
Year to date precipitation 7.69 11.80  
Snow  
Snow 0.00 in - - ()
Month to date snowfall 0.4  
Since 1 July snowfall 47.0  
Snow Depth 0.00 in    
Sea Level Pressure  
Sea Level Pressure 29.99 in    
Wind  
Wind Speed 5 mph (SE)    
Max Wind Speed 16 mph    
Max Gust Speed 23 mph    
Visibility 10 miles    
Events      
T = Trace of Precipitation, MM = Missing Value Source: NWS Daily Summary

Daily Weather History Graph

Daily Weather History Graph

Search for Another Location

Airport or City:

Trip Planner

Search our weather history database for the weather conditions in past years. The results will help you decide how hot, cold, wet, or windy it might be!

Date:

Astronomy

Apr. 24, 2014 Rise Set
Actual Time 6:38 AM EDT 8:08 PM EDT
Civil Twilight 6:10 AM EDT 8:35 PM EDT
Nautical Twilight 5:37 AM EDT 9:08 PM EDT
Astronomical Twilight 5:03 AM EDT 9:43 PM EDT
Moon 3:41 AM EDT (4/24) 3:28 PM EDT (4/24)
Length of Visible Light 14h 24m
Length of Day
13h 29m
Waning Crescent, 24% of the Moon is Illuminated
Apr 24
Waning Crescent
Apr 29
New
May 6
First Quarter
May 14
Full
May 21
Last Quarter

Hourly Weather History & Observations

Time (EDT) Temp. Windchill Dew Point Humidity Pressure Visibility Wind Dir Wind Speed Gust Speed Precip Events Conditions
12:52 AM 48.0 °F - 27.0 °F 44% 30.04 in 10.0 mi NW 3.5 mph - N/A   Clear
1:52 AM 46.0 °F - 27.0 °F 47% 30.02 in 10.0 mi Calm Calm - N/A   Clear
2:52 AM 44.1 °F - 27.0 °F 51% 30.01 in 10.0 mi Calm Calm - N/A   Clear
3:52 AM 44.1 °F 41.5 °F 28.0 °F 53% 30.01 in 10.0 mi NE 4.6 mph - N/A   Clear
4:52 AM 43.0 °F - 27.0 °F 53% 30.04 in 10.0 mi Calm Calm - N/A   Clear
5:52 AM 42.1 °F - 27.0 °F 55% 30.04 in 10.0 mi Calm Calm - N/A   Clear
6:52 AM 42.1 °F 39.2 °F 27.0 °F 55% 30.05 in 10.0 mi East 4.6 mph - N/A   Clear
7:52 AM 42.1 °F 39.2 °F 28.9 °F 60% 30.06 in 10.0 mi East 4.6 mph - N/A   Partly Cloudy
8:52 AM 46.9 °F - 30.0 °F 52% 30.08 in 10.0 mi Variable 4.6 mph - N/A   Mostly Cloudy
9:52 AM 48.9 °F - 28.9 °F 46% 30.09 in 10.0 mi East 6.9 mph - N/A   Overcast
10:52 AM 54.0 °F - 28.0 °F 37% 30.09 in 10.0 mi East 6.9 mph - N/A   Overcast
11:52 AM 57.9 °F - 27.0 °F 31% 30.06 in 10.0 mi East 5.8 mph - N/A   Overcast
12:52 PM 63.0 °F - 26.1 °F 25% 30.01 in 10.0 mi Variable 3.5 mph - N/A   Clear
1:52 PM 68.0 °F - 28.9 °F 23% 29.99 in 10.0 mi Variable 5.8 mph - N/A   Clear
2:52 PM 71.1 °F - 27.0 °F 19% 29.95 in 10.0 mi West 5.8 mph - N/A   Clear
3:52 PM 73.9 °F - 23.0 °F 15% 29.92 in 10.0 mi West 8.1 mph - N/A   Clear
4:52 PM 73.9 °F - 24.1 °F 16% 29.91 in 10.0 mi West 5.8 mph - N/A   Clear
5:52 PM 73.9 °F - 26.1 °F 17% 29.91 in 10.0 mi WNW 4.6 mph - N/A   Clear
6:52 PM 73.0 °F - 24.1 °F 16% 29.91 in 10.0 mi South 5.8 mph - N/A   Partly Cloudy
7:52 PM 68.0 °F - 32.0 °F 26% 29.93 in 10.0 mi SE 6.9 mph - N/A   Clear
8:52 PM 64.9 °F - 34.0 °F 32% 29.91 in 10.0 mi SSE 9.2 mph - N/A   Clear
9:52 PM 63.0 °F - 34.0 °F 34% 29.92 in 10.0 mi SSE 11.5 mph 18.4 mph N/A   Clear
10:52 PM 61.0 °F - 34.0 °F 36% 29.91 in 10.0 mi SSE 6.9 mph 18.4 mph N/A   Clear
11:52 PM 60.1 °F - 34.0 °F 38% 29.90 in 10.0 mi South 11.5 mph 21.9 mph N/A   Clear